Marshfield, WI

12:06 AM CST on November 18, 2019 (GMT -0600)
Marshfield Municipal

Weather History for KMFI - September, 2019

Change the Weather History Date:

Friday, September 6, 2019

  Actual Average Record
Temperature  
Mean Temperature 62 °F -  
Max Temperature 70 °F 75 °F 97 °F (1922)
Min Temperature 53 °F 50 °F 33 °F (1924)
Degree Days  
Heating Degree Days 4    
Growing Degree Days 12 (Base 50)    
Moisture  
Dew Point 55 °F    
Average Humidity 76    
Maximum Humidity 96    
Minimum Humidity 59    
Precipitation  
Precipitation 0.00 in - - ()
Sea Level Pressure  
Sea Level Pressure 29.99 in    
Wind  
Wind Speed 11 mph (NNW)    
Max Wind Speed 21 mph    
Max Gust Speed 31 mph    
Visibility 10 miles    
Events      
Averages and records for this station are not official NWS values.
T = Trace of Precipitation, MM = Missing Value Source: NWS Daily Summary

Daily Weather History Graph

Daily Weather History Graph

Search for Another Location

Airport or City:

Astronomy

Sep. 06, 2019 Rise Set
Actual Time 6:28 AM CDT 7:28 PM CDT
Civil Twilight 5:59 AM CDT 7:58 PM CDT
Nautical Twilight 5:23 AM CDT 8:33 PM CDT
Astronomical Twilight 4:46 AM CDT 9:10 PM CDT
Moon 2:56 PM CDT (9/6) No Moon Set
Length of Visible Light 13h 59m
Length of Day
12h 59m
First Quarter, 56% of the Moon is Illuminated
Sep 6
First Quarter
Sep 13
Full
Sep 21
Last Quarter
Sep 28
New
Oct 5
First Quarter

Hourly Weather History & Observations

Time (CDT) Temp. Dew Point Humidity Pressure Visibility Wind Dir Wind Speed Gust Speed Precip Events Conditions
12:54 AM 61.0 °F 57.0 °F 87% 29.87 in 10.0 mi South 6.9 mph - N/A   Partly Cloudy
1:54 AM 60.1 °F 57.0 °F 90% 29.86 in 10.0 mi SW 3.5 mph - N/A   Partly Cloudy
2:14 AM 61.0 °F 57.9 °F 90% 29.87 in 10.0 mi Calm Calm - N/A   Mostly Cloudy
2:54 AM 62.1 °F 59.0 °F 90% 29.85 in 10.0 mi WSW 5.8 mph - N/A   Overcast
3:23 AM 63.0 °F 59.0 °F 87% 29.86 in 10.0 mi West 9.2 mph - N/A   Overcast
3:42 AM 63.0 °F 60.1 °F 90% 29.86 in 10.0 mi WNW 11.5 mph - N/A   Overcast
3:54 AM 63.0 °F 60.1 °F 90% 29.85 in 10.0 mi NW 10.4 mph - N/A   Overcast
4:29 AM 64.0 °F 60.1 °F 87% 29.87 in 10.0 mi NW 15.0 mph - N/A   Overcast
4:54 AM 64.0 °F 59.0 °F 84% 29.87 in 10.0 mi NNW 16.1 mph - N/A   Overcast
5:52 AM 62.6 °F 57.2 °F 82% 29.90 in 10.0 mi NNW 19.6 mph 25.3 mph N/A   Overcast
5:54 AM 63.0 °F 57.9 °F 84% 29.90 in 10.0 mi NNW 19.6 mph 29.9 mph N/A   Overcast
6:54 AM 62.1 °F 57.0 °F 84% 29.93 in 10.0 mi NNW 15.0 mph - N/A   Overcast
7:18 AM 61.0 °F 55.9 °F 83% 29.95 in 10.0 mi North 19.6 mph 27.6 mph N/A   Overcast
7:54 AM 61.0 °F 54.0 °F 78% 29.97 in 10.0 mi North 15.0 mph 31.1 mph N/A   Overcast
8:46 AM 63.0 °F 54.0 °F 72% 29.98 in 10.0 mi NNW 20.7 mph 26.5 mph N/A   Scattered Clouds
8:54 AM 63.0 °F 53.1 °F 70% 29.99 in 10.0 mi NNW 17.3 mph 26.5 mph N/A   Scattered Clouds
9:13 AM 62.1 °F 53.1 °F 72% 29.99 in 10.0 mi North 18.4 mph 28.8 mph N/A   Mostly Cloudy
9:54 AM 62.1 °F 53.1 °F 72% 30.00 in 10.0 mi North 16.1 mph 24.2 mph N/A   Overcast
10:54 AM 64.9 °F 53.1 °F 65% 30.02 in 10.0 mi North 18.4 mph 31.1 mph N/A   Mostly Cloudy
11:19 AM 66.0 °F 53.1 °F 63% 30.03 in 10.0 mi North 13.8 mph 25.3 mph N/A   Scattered Clouds
11:32 AM 64.9 °F 53.1 °F 65% 30.03 in 10.0 mi North 15.0 mph - N/A   Mostly Cloudy
11:54 AM 66.9 °F 54.0 °F 63% 30.04 in 10.0 mi North 13.8 mph 23.0 mph N/A   Mostly Cloudy
12:18 PM 66.9 °F 53.1 °F 61% 30.04 in 10.0 mi North 12.7 mph 24.2 mph N/A   Scattered Clouds
12:54 PM 66.9 °F 54.0 °F 63% 30.04 in 10.0 mi NNW 17.3 mph 25.3 mph N/A   Mostly Cloudy
1:20 PM 66.9 °F 54.0 °F 63% 30.06 in 10.0 mi North 13.8 mph 23.0 mph N/A   Mostly Cloudy
1:35 PM 66.9 °F 53.1 °F 61% 30.05 in 10.0 mi North 16.1 mph 24.2 mph N/A   Scattered Clouds
1:52 PM 66.2 °F 53.6 °F 64% 30.06 in 10.0 mi NNW 16.1 mph 23.0 mph N/A   Mostly Cloudy
1:54 PM 66.0 °F 53.1 °F 63% 30.06 in 10.0 mi NNW 13.8 mph 23.0 mph N/A   Mostly Cloudy
2:25 PM 66.9 °F 53.1 °F 61% 30.05 in 10.0 mi North 12.7 mph 23.0 mph N/A   Mostly Cloudy
2:54 PM 68.0 °F 54.0 °F 61% 30.05 in 10.0 mi North 13.8 mph 23.0 mph N/A   Scattered Clouds
3:54 PM 70.0 °F 55.0 °F 59% 30.05 in 10.0 mi North 15.0 mph 23.0 mph N/A   Scattered Clouds
4:54 PM 68.0 °F 53.1 °F 59% 30.04 in 10.0 mi North 11.5 mph - N/A   Partly Cloudy
5:54 PM 68.0 °F 53.1 °F 59% 30.05 in 10.0 mi NNW 12.7 mph - N/A   Clear
6:54 PM 64.9 °F 54.0 °F 68% 30.06 in 10.0 mi NW 6.9 mph - N/A   Clear
7:54 PM 60.1 °F 54.0 °F 80% 30.06 in 10.0 mi WNW 3.5 mph - N/A   Clear
8:54 PM 55.9 °F 53.1 °F 90% 30.07 in 10.0 mi Calm Calm - N/A   Clear
9:54 PM 55.9 °F 53.1 °F 90% 30.07 in 10.0 mi Calm Calm - N/A   Clear
10:54 PM 55.0 °F 53.1 °F 93% 30.06 in 10.0 mi Calm Calm - N/A   Clear
11:54 PM 53.1 °F 52.0 °F 96% 30.04 in 1.5 mi SSW 3.5 mph - N/A   Clear
11:58 PM 53.1 °F 52.0 °F 96% 30.04 in 3.0 mi Calm Calm - N/A   Clear